Fes-Sais, Morocco

6:56 AM WET on February 12, 2016 (GMT +0000)
Saiss

Weather History for GMFF - May, 2013

Change the Weather History Date:

Tuesday, May 28, 2013

  Actual Average Record
Temperature  
Mean Temperature 60 °F -  
Max Temperature 68 °F 85 °F 98 °F (2001)
Min Temperature 52 °F 58 °F 47 °F (2014)
Degree Days  
Heating Degree Days 5    
Growing Degree Days 10 (Base 50)    
Moisture  
Dew Point 45 °F    
Average Humidity 58    
Maximum Humidity 77    
Minimum Humidity 32    
Precipitation  
Precipitation 0.00 in 0.03 in - ()
Sea Level Pressure  
Sea Level Pressure 30.04 in    
Wind  
Wind Speed 6 mph ()    
Max Wind Speed 14 mph    
Max Gust Speed 110 mph    
Visibility 6.2 miles    
Events      
Averages and records for this station are not official NWS values.
T = Trace of Precipitation, MM = Missing Value Source: Averaged Metar Reports

Daily Weather History Graph

Daily Weather History Graph

Search for Another Location

Airport or City:

Trip Planner

Search our weather history database for the weather conditions in past years. The results will help you decide how hot, cold, wet, or windy it might be!

Date:

Astronomy

May. 28, 2013 Rise Set
Actual Time 6:11 AM WEST 8:23 PM WEST
Civil Twilight 5:42 AM WEST 8:51 PM WEST
Nautical Twilight 5:08 AM WEST 9:26 PM WEST
Astronomical Twilight 4:30 AM WEST 10:04 PM WEST
Moon 11:42 PM WEST (5/28) 9:39 AM WEST (5/28)
Length of Visible Light 15h 09m
Length of Day
14h 12m
Waning Gibbous, 85% of the Moon is Illuminated
May 28
Waning Gibbous
May 31
Last Quarter
Jun 8
New
Jun 16
First Quarter
Jun 23
Full

Hourly Weather History & Observations

Time (WEST) Temp. Dew Point Humidity Pressure Visibility Wind Dir Wind Speed Gust Speed Precip Events Conditions
12:00 AM 53.6 °F 44.6 °F 72% 30.06 in 6.2 mi WNW 6.9 mph - N/A   Mostly Cloudy
1:00 AM 53 °F 46 °F 69% 30.09 in 6 mi WNW 4.6 mph - -   Mostly Cloudy
1:00 AM 53.6 °F 46.4 °F 77% 30.06 in 6.2 mi WNW 4.6 mph - N/A   Mostly Cloudy
2:00 AM 53.6 °F 42.8 °F 67% 30.04 in 6.2 mi WNW 3.5 mph - N/A   Mostly Cloudy
3:00 AM 53.6 °F 44.6 °F 72% 30.04 in 6.2 mi Variable 10.4 mph 48.3 mph N/A   Overcast
4:00 AM 53 °F 46 °F 69% 30.09 in 6 mi WNW 4.6 mph - -   Mostly Cloudy
4:00 AM 53.6 °F 44.6 °F 72% 30.04 in 6.2 mi NW 3.5 mph - N/A   Mostly Cloudy
5:00 AM 53.6 °F 44.6 °F 72% 30.04 in 6.2 mi WNW 3.5 mph - N/A   Mostly Cloudy
6:00 AM 51.8 °F 42.8 °F 71% 30.04 in 6.2 mi WNW 4.6 mph - N/A   Mostly Cloudy
7:00 AM 52 °F 43 °F 63% 30.04 in 6 mi WNW 3.5 mph - -   Mostly Cloudy
7:00 AM 53.6 °F 44.6 °F 72% 30.04 in 6.2 mi North - - N/A   Mostly Cloudy
8:00 AM 53.6 °F 42.8 °F 67% 30.04 in 6.2 mi West 4.6 mph 110.5 mph N/A   Mostly Cloudy
9:00 AM 55.4 °F 44.6 °F 67% 30.06 in 6.2 mi NW 2.3 mph - N/A   Mostly Cloudy
10:00 AM 55 °F 43 °F 54% 30.06 in 6 mi NW 2.3 mph - -   Mostly Cloudy
10:00 AM 55.4 °F 42.8 °F 63% 30.04 in 6.2 mi NW 2.3 mph - N/A   Mostly Cloudy
11:00 AM 60.8 °F 46.4 °F 59% 30.04 in 6.2 mi WNW 6.9 mph - N/A   Mostly Cloudy
12:00 PM 66.2 °F 48.2 °F 52% 30.04 in 6.2 mi NW 9.2 mph - N/A   Mostly Cloudy
1:00 PM 67 °F 44 °F 33% 29.99 in 6 mi NW 6.9 mph - -   Partly Cloudy
1:00 PM 68.0 °F 46.4 °F 46% 30.04 in 6.2 mi NW 8.1 mph - N/A   Scattered Clouds
2:00 PM 68.0 °F 44.6 °F 43% 30.01 in 6.2 mi NW 11.5 mph - N/A   Scattered Clouds
3:00 PM 69.8 °F 44.6 °F 40% 30.01 in 6.2 mi WNW 10.4 mph - N/A   Scattered Clouds
3:30 PM 69.8 °F 46.4 °F 43% 30.01 in 6.2 mi NW 11.5 mph - N/A   Scattered Clouds
4:00 PM 69 °F 46 °F 32% 29.96 in 6 mi NW 10.4 mph - -   Partly Cloudy
4:00 PM 69.8 °F 46.4 °F 43% 29.98 in 6.2 mi WNW 10.4 mph - N/A   Scattered Clouds
5:00 PM 69.8 °F 46.4 °F 43% 29.98 in 6.2 mi WNW 12.7 mph - N/A   Scattered Clouds
6:00 PM 69.8 °F 46.4 °F 43% 30.01 in 6.2 mi NW 13.8 mph - N/A   Scattered Clouds
7:00 PM 66 °F 47 °F 40% 29.99 in 6 mi NW 13.8 mph - -   Partly Cloudy
7:00 PM 66.2 °F 48.2 °F 52% 30.01 in 6.2 mi NW 13.8 mph - N/A   Scattered Clouds
8:00 PM 62.6 °F 48.2 °F 59% 30.04 in 6.2 mi NW 11.5 mph - N/A   Scattered Clouds
9:00 PM 60.8 °F 48.2 °F 63% 30.09 in 6.2 mi WNW 11.5 mph - N/A   Scattered Clouds
10:00 PM 55 °F 44 °F 57% 30.12 in 6 mi WNW 8.1 mph - -   Partly Cloudy
10:00 PM 59.0 °F 48.2 °F 67% 30.09 in 6.2 mi WNW 8.1 mph - N/A   Scattered Clouds
11:00 PM 53.6 °F 44.6 °F 72% 30.12 in 6.2 mi West 6.9 mph - N/A   Partly Cloudy